TimeCST,TemperatureF,Dew PointF,Humidity,Sea Level PressureIn,VisibilityMPH,Wind Direction,Wind SpeedMPH,Gust SpeedMPH,PrecipitationIn,Events,Conditions,WindDirDegrees,DateUTC
1:15 AM,23.0,17.6,80,30.07,10.0,NE,5.8,-,N/A,,Clear,50,2012-12-14 07:15:00
1:55 AM,21.2,17.6,86,30.06,10.0,NE,5.8,-,N/A,,Clear,50,2012-12-14 07:55:00
2:15 AM,21.2,17.6,86,30.05,10.0,NE,6.9,-,N/A,,Clear,40,2012-12-14 08:15:00
2:35 AM,21.2,17.6,86,30.04,10.0,NE,5.8,-,N/A,,Clear,40,2012-12-14 08:35:00
2:55 AM,21.2,17.6,86,30.05,10.0,NNE,6.9,-,N/A,,Clear,30,2012-12-14 08:55:00
3:15 AM,21.2,17.6,86,30.05,10.0,NNE,8.1,-,N/A,,Clear,30,2012-12-14 09:15:00
3:35 AM,21.2,17.6,86,30.05,8.0,ENE,6.9,-,N/A,,Clear,60,2012-12-14 09:35:00
3:55 AM,21.2,17.6,86,30.04,8.0,ENE,6.9,-,N/A,,Clear,60,2012-12-14 09:55:00
4:15 AM,21.2,17.6,86,30.03,8.0,NE,4.6,-,N/A,,Clear,50,2012-12-14 10:15:00
4:35 AM,21.2,17.6,86,30.02,8.0,East,4.6,-,N/A,,Clear,80,2012-12-14 10:35:00
4:55 AM,21.2,17.6,86,30.02,8.0,NNE,6.9,-,N/A,,Clear,30,2012-12-14 10:55:00
5:15 AM,21.2,17.6,86,30.01,8.0,NNE,8.1,-,N/A,,Clear,30,2012-12-14 11:15:00
5:35 AM,21.2,17.6,86,30.02,8.0,NE,4.6,-,N/A,,Clear,40,2012-12-14 11:35:00
5:55 AM,21.2,17.6,86,30.01,7.0,NE,6.9,-,N/A,,Clear,40,2012-12-14 11:55:00
6:15 AM,19.4,17.6,93,30.00,7.0,NE,5.8,-,N/A,,Clear,50,2012-12-14 12:15:00
6:35 AM,19.4,15.8,86,30.01,7.0,NE,4.6,-,N/A,,Clear,40,2012-12-14 12:35:00
6:55 AM,21.2,17.6,86,29.99,8.0,ENE,6.9,-,N/A,,Clear,60,2012-12-14 12:55:00
7:15 AM,19.4,15.8,86,29.99,8.0,ENE,3.5,-,N/A,,Clear,60,2012-12-14 13:15:00
7:35 AM,19.4,15.8,86,29.99,7.0,NNE,5.8,-,N/A,,Clear,30,2012-12-14 13:35:00
7:55 AM,19.4,15.8,86,29.99,6.0,Calm,Calm,-,N/A,,Clear,0,2012-12-14 13:55:00
8:15 AM,21.2,17.6,86,29.98,7.0,ENE,4.6,-,N/A,,Clear,70,2012-12-14 14:15:00
8:35 AM,24.8,19.4,80,29.98,8.0,Calm,Calm,-,N/A,,Clear,0,2012-12-14 14:35:00
8:55 AM,24.8,19.4,80,29.98,6.0,North,4.6,-,N/A,,Clear,350,2012-12-14 14:55:00
9:15 AM,30.2,23.0,75,29.97,8.0,Calm,Calm,-,N/A,,Clear,0,2012-12-14 15:15:00
9:35 AM,35.6,24.8,65,29.97,8.0,SSE,6.9,-,N/A,,Clear,160,2012-12-14 15:35:00
9:55 AM,39.2,26.6,61,29.96,10.0,SSE,12.7,-,N/A,,Clear,160,2012-12-14 15:55:00
10:15 AM,41.0,26.6,57,29.96,10.0,South,10.4,-,N/A,,Clear,180,2012-12-14 16:15:00
10:35 AM,42.8,26.6,53,29.95,9.0,SSE,12.7,18.4,N/A,,Clear,160,2012-12-14 16:35:00
10:55 AM,42.8,26.6,53,29.94,10.0,South,11.5,-,N/A,,Clear,180,2012-12-14 16:55:00
11:15 AM,44.6,26.6,49,29.93,10.0,SSE,10.4,-,N/A,,Clear,160,2012-12-14 17:15:00
11:35 AM,46.4,28.4,50,29.92,10.0,SSE,15.0,-,N/A,,Clear,160,2012-12-14 17:35:00
11:55 AM,48.2,28.4,46,29.90,10.0,South,11.5,18.4,N/A,,Clear,180,2012-12-14 17:55:00
12:15 PM,50.0,28.4,43,29.89,10.0,South,11.5,-,N/A,,Clear,180,2012-12-14 18:15:00
12:35 PM,50.0,28.4,43,29.87,10.0,South,10.4,-,N/A,,Clear,180,2012-12-14 18:35:00
12:55 PM,50.0,28.4,43,29.86,10.0,South,12.7,-,N/A,,Clear,170,2012-12-14 18:55:00
1:15 PM,50.0,30.2,47,29.85,10.0,South,12.7,18.4,N/A,,Clear,170,2012-12-14 19:15:00
1:35 PM,51.8,30.2,44,29.84,10.0,South,12.7,20.7,N/A,,Clear,190,2012-12-14 19:35:00
1:55 PM,51.8,30.2,44,29.82,10.0,South,12.7,21.9,N/A,,Clear,180,2012-12-14 19:55:00
2:15 PM,53.6,32.0,44,29.81,10.0,South,16.1,23.0,N/A,,Clear,180,2012-12-14 20:15:00
2:35 PM,53.6,32.0,44,29.80,10.0,South,11.5,19.6,N/A,,Clear,170,2012-12-14 20:35:00
2:55 PM,53.6,32.0,44,29.79,10.0,South,12.7,-,N/A,,Clear,170,2012-12-14 20:55:00
3:15 PM,51.8,32.0,47,29.78,10.0,SSE,12.7,20.7,N/A,,Clear,160,2012-12-14 21:15:00
3:35 PM,51.8,32.0,47,29.78,10.0,SSE,10.4,17.3,N/A,,Clear,160,2012-12-14 21:35:00
3:55 PM,50.0,32.0,50,29.79,10.0,SSE,12.7,-,N/A,,Clear,150,2012-12-14 21:55:00
4:15 PM,50.0,32.0,50,29.79,10.0,SSE,15.0,-,N/A,,Clear,160,2012-12-14 22:15:00
4:35 PM,50.0,32.0,50,29.78,10.0,SSE,13.8,19.6,N/A,,Clear,150,2012-12-14 22:35:00
4:55 PM,50.0,32.0,50,29.78,10.0,SSE,11.5,19.6,N/A,,Clear,150,2012-12-14 22:55:00
5:15 PM,50.0,32.0,50,29.77,10.0,SSE,11.5,19.6,N/A,,Mostly Cloudy,150,2012-12-14 23:15:00
5:35 PM,48.2,32.0,54,29.77,10.0,SE,10.4,20.7,N/A,,Overcast,140,2012-12-14 23:35:00
5:55 PM,48.2,33.8,58,29.76,10.0,SSE,12.7,-,N/A,,Overcast,150,2012-12-14 23:55:00
6:35 PM,50.0,33.8,54,29.77,10.0,SSE,13.8,19.6,N/A,,Overcast,160,2012-12-15 00:35:00
6:55 PM,50.0,33.8,54,29.76,10.0,SSE,15.0,21.9,N/A,,Overcast,150,2012-12-15 00:55:00
7:35 PM,50.0,33.8,54,29.75,10.0,South,18.4,-,N/A,,Overcast,170,2012-12-15 01:35:00
7:55 PM,48.2,33.8,58,29.75,10.0,SSE,13.8,23.0,N/A,,Overcast,160,2012-12-15 01:55:00
8:15 PM,48.2,33.8,58,29.74,10.0,SSE,16.1,24.2,N/A,,Overcast,160,2012-12-15 02:15:00
8:55 PM,48.2,33.8,58,29.73,10.0,South,16.1,21.9,N/A,,Overcast,170,2012-12-15 02:55:00
9:15 PM,48.2,33.8,58,29.72,10.0,SSE,15.0,21.9,N/A,,Overcast,160,2012-12-15 03:15:00
9:35 PM,48.2,33.8,58,29.71,10.0,South,17.3,-,N/A,,Overcast,170,2012-12-15 03:35:00
9:55 PM,48.2,33.8,58,29.70,10.0,South,17.3,26.5,N/A,,Overcast,170,2012-12-15 03:55:00
10:15 PM,48.2,35.6,62,29.69,10.0,SSE,16.1,27.6,N/A,,Overcast,160,2012-12-15 04:15:00
10:35 PM,48.2,37.4,66,29.67,10.0,SSE,13.8,-,N/A,,Overcast,160,2012-12-15 04:35:00
10:55 PM,48.2,39.2,71,29.66,10.0,SSE,11.5,20.7,N/A,,Overcast,160,2012-12-15 04:55:00
11:15 PM,46.4,41.0,81,29.64,10.0,SSE,6.9,13.8,N/A,,Overcast,150,2012-12-15 05:15:00
11:55 PM,46.4,41.0,81,29.61,10.0,SSE,11.5,-,N/A,,Overcast,160,2012-12-15 05:55:00